SCP
0 0 0 0 0 -0 0 0 0 0 0 0 0 -0 0 -0 0 0 0 0 0 0 0 0 0 0 0 0 0 0 0 0 0 0 0 0 0 0 0 0 0 0 0 0
0 0 0 0 0 -0 0 0 0 -0 0 0 0 -0 -0 0 0 0 0 0 0 0 0 0 0 0 0 0 0 0 0 0 0 0 0 0 0 0 0 0 0 0 0 0
0 0 0 0 0 0 0 0 0 0 0 0 0 0 0 0 0 0 0 0 0 0 0 0 0 0 0 0 0 0 0 0 0 0 0 0 0 0 0 0 0 0 0 0
0 0 0 0 0 0 0 0 0 0 0 0 0 0 0 0 0 0 0 0 0 0 0 0 0 0 0 0 0 0 0 0 0 0 0 0 0 0 0 0 0 0 -0 0
0 0 0 0 0 0 0 0 0 0 0 0 0 0 0 0 0 0 0 0 0 0 0 0 0 0 0 0 0 0 0 0 0 0 0 0 0 0 0 0 0 0 0 0
0 0 0 0 0 0 0 0 0 0 0 0 0 0 0 0 0 0 0 0 0 0 0 0 0 0 0 0 0 0 0 0 0 0 0 0 0 0 0 0 0 0 0 0
0 0 0 0 0 0 0 0 0 0 0 0 0 0 0 0 0 0 0 0 0 0 0 0 0 0 0 0 0 0 0 0 0 0 0 0 0 0 0 0 0 0 0 0
0 0 0 0 0 0 0 0 0 0 0 0 0 0 0 0 0 0 0 0 0 0 0 0 0 0 0 0 0 0 0 0 0 0 0 0 0 0 0 0 0 0 0 0
0 0 0 0 0 0 0 0 0 0 0 0 0 0 0 0 0 0 0 0 0 0 0 0 0 0 0 0 0 0 0 0 0 0 0 0 0 0 0 0 0 0 0 0
0 0 0 0 0 0 0 0 0 0 0 0 0 0 0 0 0 0 0 0 0 0 0 0 0 0 0 0 0 0 0 0 0 0 0 0 0 0 0 0 0 0 0 0
0 0 0 0 0 0 0 0 0 0 0 0 0 0 0 0 0 0 0 0 0 0 0 0 0 0 0 0 0 0 0 0 0 0 0 0 0 0 0 0 0 0 0 0
0 0 0 0 0 0 0 0 0 0 0 0 -0 0 0 0 0 0 0 0 0 0 0 0 0 0 0 0 0 0 0 0 0 0 0 0 0 0 0 0 0 0 0 0
0 0 0 0 0 0 0 0 0 0 0 0 0 0 0 0 0 0 0 0 0 0 0 0 0 0 0 0 0 0 0 0 0 0 0 0 0 0 0 0 0 0 0 0
0 0 0 0 0 0 0 0 0 0 0 0 0 0 0 0 0 0 0 0 0 0 0 0 0 0 0 0 0 0 0 0 0 0 0 0 0 0 0 0 0 0 0 0
0 0 0 0 0 0 0 0 0 0 0 0 0 0 0 0 0 0 0 0 0 0 0 0 0 0 0 0 0 0 0 0 0 0 0 0 0 0 0 0 0 0 0 -0
0 0 0 0 0 0 0 0 0 0 0 0 0 0 0 0 0 0 0 0 0 0 0 0 -0 -0 0 0 0 0 0 0 0 0 0 0 -0 0 0 0 0 -0 -0 0
0 0 0 0 0 0 0 0 0 0 0 0 0 0 0 0 0 0 0 0 0 0 0 0 0 0 0 0 0 -0 0 0 0 0 -0 0 0 0 0 0 0 0 0 0
0 0 0 0 0 0 0 0 0 0 0 0 0 0 0 0 0 0 0 0 0 0 -0 -0 0 0 0 -0 -0 0 0 0 0 0 0 0 0 0 0 -0 0 -0 -0 -0
0 0 -0 0 0 0 0 0 0 0 0 0 0 0 0 0 0 0 0 0 0 0 -0 0 -0 0 -0 -0 0 -0 0 0 0 0 0 0 0 0 0 0 -0 -0 -0 -0
-0 0 0 0 0 0 0 0 0 0 0 0 0 0 0 0 0 0 0 0 0 -0 0 -0 -0 0 -0 0 0 0 0 0 0 0 -0 0 0 0 0 -0 -0 0 -0 0
0 0 0 0 0 0 0 0 0 0 0 0 -0 -0 -0 0 0 0 0 0 0 -0 0 0 0 -0 0 0 0 0 0 0 0 0 0 0 0 -0 -0 0 -0 0 0 0
0 0 0 0 0 0 0 0 0 0 0 0 0 0 0 0 -0 -0 -0 0 0 -0 -0 -0 0 0 -0 0 0 0 0 0 0 0 0 0 -0 0 0 0 0 0 0 0
0 0 0 0 0 0 0 0 0 -0 -0 0 0 0 0 0 -0 -0 0 0 -0 -0 -0 -0 0 -0 0 0 0 0 0 0 0 0 -0 -0 0 0 0 0 -0 -0 0 -0
0 0 0 0 0 0 0 -0 0 -0 0 -0 -0 0 0 -0 0 -0 0 -0 0 0 0 0 0 0 -0 -0 0 0 0 0 0 0 -0 -0 0 0 0 -0 -0 0 0 -0
0 0 0 0 0 0 0 0 0 -0 0 -0 0 0 -0 -0 0 0 -0 0 0 0 -0 -0 0 -0 -0 -0 -0 -0 0 0 0 -0 -0 -0 -0 -0 -0 -0 -0 0 -0 0
0 0 0 0 0 0 -0 0 0 -0 0 0 0 0 -0 -0 -0 0 -0 0 0 -0 -0 0 0 -0 -0 -0 -0 -0 0 0 0 -0 -0 -0 -0 -0 -0 -0 -0 -0 -0 0
0 0 0 0 0 0 -0 -0 0 0 -0 0 0 -0 -0 -0 -0 -0 0 -0 0 -0 0 0 -0 -0 -0 -0 -0 -0 0 0 0 0 -0 -0 -0 -0 -0 -0 -0 -0 -0 -0
Wind_Speed_500mb
45 39 41 46 56 59 48 13 6 7 4 2 7 6 18 24 12 26 15 10 13 17 17 14 13 17 9 23 13 9 3 4 5 11 16 19 17 17 9 5 15 6 8 19
45 38 35 39 46 54 62 35 14 9 10 2 5 8 23 38 11 14 13 13 19 16 14 10 14 12 10 20 14 7 12 5 6 12 11 13 8 8 8 6 5 18 15 9
40 38 32 35 37 41 46 14 7 4 5 18 11 15 12 16 17 25 23 13 10 18 16 15 12 14 11 13 15 11 10 5 5 9 16 24 15 14 10 7 5 8 16 19
41 33 31 33 31 32 37 7 5 11 7 11 8 11 10 12 11 21 14 9 17 11 5 15 10 16 17 14 7 5 7 7 10 16 25 34 36 35 29 25 27 18 18 21
39 36 31 30 31 28 14 13 12 19 22 24 8 7 7 17 16 13 12 12 17 12 4 10 18 18 11 8 6 6 8 6 11 16 27 35 41 35 33 36 29 38 35 39
46 37 29 26 27 23 9 21 16 15 22 12 11 4 6 7 6 3 16 13 11 11 12 17 24 28 25 19 10 1 7 3 6 7 18 24 16 27 30 28 16 15 22 9
44 27 23 20 19 16 13 11 17 8 9 13 17 23 12 7 8 6 17 17 4 15 27 35 34 46 44 34 28 17 7 4 4 7 12 10 10 12 15 4 26 23 17 19
21 14 13 15 15 14 12 10 9 9 8 22 25 23 15 18 15 5 3 16 8 18 23 8 13 8 4 15 27 21 19 8 3 4 5 19 22 7 7 7 10 13 16 11
20 18 15 16 17 12 9 6 5 6 10 2 28 19 26 8 8 12 15 9 14 7 5 5 6 5 6 2 6 11 17 17 7 3 8 5 1 9 29 10 3 14 15 12
21 21 18 14 13 11 9 8 6 4 10 24 26 10 7 10 9 5 16 10 11 6 3 5 6 6 6 4 3 5 9 8 17 11 8 13 15 9 25 7 6 6 15 11
23 23 21 14 14 15 11 9 9 6 9 41 21 11 12 6 2 4 11 12 6 5 3 5 5 5 5 5 4 8 6 6 5 8 10 9 23 10 7 11 7 17 12 19
24 25 22 20 18 17 17 8 13 14 16 22 37 32 21 30 19 12 7 4 3 5 5 5 6 6 5 7 4 4 3 4 3 7 5 13 13 7 18 27 33 36 33 35
23 23 23 17 19 14 17 20 5 7 11 33 15 21 9 9 15 26 16 6 5 8 3 7 5 7 6 4 5 8 7 12 5 6 4 14 13 25 22 26 31 33 37 37
25 22 24 21 19 19 19 18 14 11 4 5 10 6 8 9 17 6 16 16 9 7 3 3 5 5 10 5 10 14 15 9 3 9 14 14 27 26 21 29 27 26 23 33
25 19 24 24 19 19 22 22 20 10 4 5 19 27 13 10 21 15 13 16 12 6 5 3 5 10 8 8 7 9 4 7 2 2 8 2 10 19 24 24 30 34 38 42
18 18 22 27 18 15 26 8 16 21 15 2 5 11 7 16 17 17 22 20 12 8 9 8 12 24 2 5 5 11 16 13 13 6 12 14 23 23 28 34 39 37 39 35
10 14 17 18 20 12 17 7 6 8 11 4 7 7 8 20 23 17 22 19 7 9 7 9 12 11 17 5 5 21 3 9 6 11 20 20 24 28 35 39 38 36 31 38
11 14 12 18 19 30 18 15 7 5 2 4 4 6 9 27 10 7 16 13 15 11 9 10 10 11 13 6 12 12 7 15 23 29 26 24 28 32 30 33 34 41 45 43
12 8 6 18 20 8 13 7 9 14 7 4 6 4 3 8 16 11 12 8 3 6 5 7 7 4 7 3 6 2 22 17 22 23 26 29 25 28 35 31 43 42 41 48
11 26 8 6 12 9 10 6 4 6 6 7 7 18 5 6 4 4 8 6 4 5 11 8 6 6 11 12 4 18 18 18 20 23 27 30 32 31 33 44 41 36 38 56
18 5 6 13 21 10 6 5 8 11 7 13 13 18 10 4 2 3 10 4 5 4 4 6 6 1 5 9 21 19 17 19 20 22 27 31 30 36 45 39 30 41 49 64
18 11 20 22 7 4 5 6 7 8 6 18 9 18 14 6 3 4 7 5 4 6 5 5 3 1 20 24 23 22 19 17 23 25 28 30 32 37 36 33 39 51 57 56
21 5 7 8 7 7 9 11 7 6 9 16 16 7 13 7 9 8 5 7 7 6 6 1 4 19 25 21 20 19 18 23 23 26 26 28 33 33 34 37 41 47 63 66
4 6 7 8 9 10 11 11 3 14 17 31 25 12 6 9 7 6 6 6 3 5 0 5 4 28 29 24 18 17 22 22 24 25 26 27 34 30 43 40 53 47 55 69
5 4 6 14 25 31 25 21 15 20 31 35 19 8 6 4 4 4 6 6 7 6 5 6 26 29 26 22 16 19 21 23 24 25 27 27 32 37 45 39 46 64 54 66
3 8 8 20 20 17 27 6 25 22 30 22 10 5 5 7 5 6 7 3 4 6 5 29 31 27 23 19 17 17 19 20 24 25 26 27 32 39 43 42 43 63 62 65
7 12 24 33 30 13 15 5 10 12 24 4 7 8 6 4 5 3 5 2 3 17 31 35 28 26 22 18 18 18 18 19 19 23 27 29 30 35 38 49 44 52 67 60
Wind_Direction_500mb
328 327 331 339 338 342 351 18 288 200 170 238 69 6 306 296 21 22 3 353 7 8 9 356 347 19 33 25 351 347 47 60 265 271 305 304 274 267 240 179 289 253 191 240
328 328 331 338 341 344 347 337 275 240 176 286 133 195 275 271 48 40 20 350 21 0 4 345 5 53 60 0 38 38 341 323 346 317 280 282 63 32 45 41 217 228 244 242
321 328 328 331 337 337 340 325 307 48 251 48 25 355 336 353 88 61 31 344 4 30 14 335 312 317 77 32 68 41 7 312 212 223 283 305 292 279 281 119 272 349 260 284
311 314 321 329 328 331 333 272 329 11 321 4 4 313 305 305 38 32 39 359 74 46 338 335 294 19 345 2 150 38 26 255 270 286 295 289 282 280 267 208 218 225 248 258
303 302 305 317 327 328 334 319 8 330 297 304 296 243 333 39 27 30 329 32 23 357 275 285 301 317 347 296 97 65 358 293 325 294 280 276 275 265 260 257 242 236 242 249
301 289 294 307 318 329 354 338 333 0 292 302 285 246 82 16 30 82 86 17 359 330 329 344 307 299 280 258 272 243 171 239 359 265 317 344 302 250 251 259 247 253 256 289
303 287 279 292 300 310 334 356 354 320 297 324 344 354 64 5 18 33 346 319 304 354 332 318 292 264 250 245 250 222 168 167 154 275 286 251 270 349 34 91 44 11 51 52
315 314 277 281 286 287 292 307 13 322 304 321 323 353 1 11 338 235 215 66 57 341 323 292 305 289 182 249 236 202 195 180 205 252 259 293 306 357 45 39 59 29 65 71
288 282 280 271 271 267 292 226 267 298 294 135 347 347 26 37 349 2 57 48 357 325 260 286 288 291 349 350 299 324 172 164 172 224 274 278 122 348 343 28 142 18 12 354
277 271 273 276 250 258 264 236 272 278 284 287 10 345 330 349 36 340 327 7 346 353 278 283 263 265 39 296 251 219 154 184 211 220 234 280 360 44 325 227 203 307 298 5
263 257 262 247 247 238 247 198 257 232 281 284 295 358 336 330 193 224 0 335 22 320 269 276 341 290 20 303 279 321 192 183 212 197 212 222 1 34 28 309 269 299 329 7
259 249 248 242 241 237 244 217 258 270 263 258 289 276 279 251 260 248 211 158 196 322 300 32 310 336 278 306 287 221 264 199 251 196 288 217 297 296 350 8 8 358 0 0
288 243 234 238 213 225 229 212 291 310 315 318 304 255 232 194 211 235 198 219 159 99 35 336 295 283 341 310 293 349 249 184 200 224 315 295 89 45 19 4 346 347 346 344
294 235 223 220 230 239 230 220 222 253 296 306 310 133 169 223 221 197 228 225 202 168 96 282 258 272 302 243 249 277 273 206 284 271 37 61 26 5 348 324 328 348 349 352
290 236 220 213 214 225 211 223 236 253 214 303 297 308 249 215 211 191 220 209 212 177 152 225 244 264 321 277 250 262 46 5 208 221 81 137 306 326 336 11 21 5 355 343
273 226 214 200 218 201 212 205 254 246 231 256 292 325 260 161 185 196 216 211 197 178 173 223 236 246 159 274 274 96 65 343 341 56 0 333 325 0 14 10 355 353 343 341
229 201 193 210 214 210 182 166 154 111 146 197 274 292 167 179 169 166 179 200 186 210 211 235 252 233 196 261 239 9 119 196 58 19 9 360 12 29 9 2 353 345 346 342
208 195 206 170 210 193 164 163 164 173 184 200 287 279 217 201 178 181 184 187 182 214 237 239 243 268 201 259 93 291 325 7 19 14 8 28 10 2 359 355 350 350 350 342
206 212 195 181 163 131 154 145 213 224 205 259 195 247 265 180 213 157 179 210 205 238 228 236 244 246 226 61 52 247 53 38 20 6 5 8 1 11 0 9 356 355 346 335
168 159 117 122 150 128 131 120 155 206 228 226 254 228 267 321 54 116 136 181 230 237 219 201 212 249 126 148 143 73 46 27 20 20 12 30 14 14 17 2 358 344 350 349
166 117 99 114 140 136 158 177 217 175 218 209 233 239 232 272 294 138 199 206 249 255 218 190 214 61 318 135 90 73 53 36 27 33 34 25 33 23 12 8 3 2 5 1
173 170 120 141 181 197 233 202 197 213 245 183 198 212 178 155 187 230 224 250 199 252 186 228 138 310 227 86 72 69 49 47 51 41 34 32 35 19 21 24 8 7 8 358
134 137 136 160 166 207 223 195 192 202 216 178 152 147 157 144 203 228 245 226 226 196 226 129 104 213 93 79 69 66 68 58 56 46 41 46 30 32 31 19 9 356 9 6
164 179 164 223 185 239 207 239 125 227 162 157 160 122 174 197 189 244 239 266 176 250 79 71 215 104 102 88 77 76 71 68 61 53 47 39 39 43 24 20 17 9 359 7
218 210 236 220 241 277 278 204 143 221 151 140 114 99 190 216 260 278 295 255 258 54 97 181 104 95 91 89 86 80 78 70 64 53 47 47 46 32 26 21 19 18 15 6
241 236 262 267 273 315 31 122 132 207 145 136 122 137 195 213 225 204 236 38 290 142 147 130 117 108 106 103 102 91 86 76 67 60 50 47 43 29 32 31 16 17 25 16
233 246 245 260 280 265 289 286 316 311 174 145 168 184 172 65 291 209 5 314 335 142 115 118 121 123 122 115 110 104 98 88 75 62 52 47 39 33 34 32 25 16 27 25
Wind_Speed_850mb
45 39 41 46 56 59 48 13 6 7 4 2 7 6 18 24 12 26 15 10 13 17 17 14 13 17 9 23 13 9 3 4 5 11 16 19 17 17 9 5 15 6 8 19
45 38 35 39 46 54 62 35 14 9 10 2 5 8 23 38 11 14 13 13 19 16 14 10 14 12 10 20 14 7 12 5 6 12 11 13 8 8 8 6 5 18 15 9
40 38 32 35 37 41 46 14 7 4 5 18 11 15 12 16 17 25 23 13 10 18 16 15 12 14 11 13 15 11 10 5 5 9 16 24 15 14 10 7 5 8 16 19
41 33 31 33 31 32 37 7 5 11 7 11 8 11 10 12 11 21 14 9 17 11 5 15 10 16 17 14 7 5 7 7 10 16 25 34 36 35 29 25 27 18 18 21
39 36 31 30 31 28 14 13 12 19 22 24 8 7 7 17 16 13 12 12 17 12 4 10 18 18 11 8 6 6 8 6 11 16 27 35 41 35 33 36 29 38 35 39
46 37 29 26 27 23 9 21 16 15 22 12 11 4 6 7 6 3 16 13 11 11 12 17 24 28 25 19 10 1 7 3 6 7 18 24 16 27 30 28 16 15 22 9
44 27 23 20 19 16 13 11 17 8 9 13 17 23 12 7 8 6 17 17 4 15 27 35 34 46 44 34 28 17 7 4 4 7 12 10 10 12 15 4 26 23 17 19
21 14 13 15 15 14 12 10 9 9 8 22 25 23 15 18 15 5 3 16 8 18 23 8 13 8 4 15 27 21 19 8 3 4 5 19 22 7 7 7 10 13 16 11
20 18 15 16 17 12 9 6 5 6 10 2 28 19 26 8 8 12 15 9 14 7 5 5 6 5 6 2 6 11 17 17 7 3 8 5 1 9 29 10 3 14 15 12
21 21 18 14 13 11 9 8 6 4 10 24 26 10 7 10 9 5 16 10 11 6 3 5 6 6 6 4 3 5 9 8 17 11 8 13 15 9 25 7 6 6 15 11
23 23 21 14 14 15 11 9 9 6 9 41 21 11 12 6 2 4 11 12 6 5 3 5 5 5 5 5 4 8 6 6 5 8 10 9 23 10 7 11 7 17 12 19
24 25 22 20 18 17 17 8 13 14 16 22 37 32 21 30 19 12 7 4 3 5 5 5 6 6 5 7 4 4 3 4 3 7 5 13 13 7 18 27 33 36 33 35
23 23 23 17 19 14 17 20 5 7 11 33 15 21 9 9 15 26 16 6 5 8 3 7 5 7 6 4 5 8 7 12 5 6 4 14 13 25 22 26 31 33 37 37
25 22 24 21 19 19 19 18 14 11 4 5 10 6 8 9 17 6 16 16 9 7 3 3 5 5 10 5 10 14 15 9 3 9 14 14 27 26 21 29 27 26 23 33
25 19 24 24 19 19 22 22 20 10 4 5 19 27 13 10 21 15 13 16 12 6 5 3 5 10 8 8 7 9 4 7 2 2 8 2 10 19 24 24 30 34 38 42
18 18 22 27 18 15 26 8 16 21 15 2 5 11 7 16 17 17 22 20 12 8 9 8 12 24 2 5 5 11 16 13 13 6 12 14 23 23 28 34 39 37 39 35
10 14 17 18 20 12 17 7 6 8 11 4 7 7 8 20 23 17 22 19 7 9 7 9 12 11 17 5 5 21 3 9 6 11 20 20 24 28 35 39 38 36 31 38
11 14 12 18 19 30 18 15 7 5 2 4 4 6 9 27 10 7 16 13 15 11 9 10 10 11 13 6 12 12 7 15 23 29 26 24 28 32 30 33 34 41 45 43
12 8 6 18 20 8 13 7 9 14 7 4 6 4 3 8 16 11 12 8 3 6 5 7 7 4 7 3 6 2 22 17 22 23 26 29 25 28 35 31 43 42 41 48
11 26 8 6 12 9 10 6 4 6 6 7 7 18 5 6 4 4 8 6 4 5 11 8 6 6 11 12 4 18 18 18 20 23 27 30 32 31 33 44 41 36 38 56
18 5 6 13 21 10 6 5 8 11 7 13 13 18 10 4 2 3 10 4 5 4 4 6 6 1 5 9 21 19 17 19 20 22 27 31 30 36 45 39 30 41 49 64
18 11 20 22 7 4 5 6 7 8 6 18 9 18 14 6 3 4 7 5 4 6 5 5 3 1 20 24 23 22 19 17 23 25 28 30 32 37 36 33 39 51 57 56
21 5 7 8 7 7 9 11 7 6 9 16 16 7 13 7 9 8 5 7 7 6 6 1 4 19 25 21 20 19 18 23 23 26 26 28 33 33 34 37 41 47 63 66
4 6 7 8 9 10 11 11 3 14 17 31 25 12 6 9 7 6 6 6 3 5 0 5 4 28 29 24 18 17 22 22 24 25 26 27 34 30 43 40 53 47 55 69
5 4 6 14 25 31 25 21 15 20 31 35 19 8 6 4 4 4 6 6 7 6 5 6 26 29 26 22 16 19 21 23 24 25 27 27 32 37 45 39 46 64 54 66
3 8 8 20 20 17 27 6 25 22 30 22 10 5 5 7 5 6 7 3 4 6 5 29 31 27 23 19 17 17 19 20 24 25 26 27 32 39 43 42 43 63 62 65
7 12 24 33 30 13 15 5 10 12 24 4 7 8 6 4 5 3 5 2 3 17 31 35 28 26 22 18 18 18 18 19 19 23 27 29 30 35 38 49 44 52 67 60
Wind_Direction_850mb
328 327 331 339 338 342 351 18 288 200 170 238 69 6 306 296 21 22 3 353 7 8 9 356 347 19 33 25 351 347 47 60 265 271 305 304 274 267 240 179 289 253 191 240
328 328 331 338 341 344 347 337 275 240 176 286 133 195 275 271 48 40 20 350 21 0 4 345 5 53 60 0 38 38 341 323 346 317 280 282 63 32 45 41 217 228 244 242
321 328 328 331 337 337 340 325 307 48 251 48 25 355 336 353 88 61 31 344 4 30 14 335 312 317 77 32 68 41 7 312 212 223 283 305 292 279 281 119 272 349 260 284
311 314 321 329 328 331 333 272 329 11 321 4 4 313 305 305 38 32 39 359 74 46 338 335 294 19 345 2 150 38 26 255 270 286 295 289 282 280 267 208 218 225 248 258
303 302 305 317 327 328 334 319 8 330 297 304 296 243 333 39 27 30 329 32 23 357 275 285 301 317 347 296 97 65 358 293 325 294 280 276 275 265 260 257 242 236 242 249
301 289 294 307 318 329 354 338 333 0 292 302 285 246 82 16 30 82 86 17 359 330 329 344 307 299 280 258 272 243 171 239 359 265 317 344 302 250 251 259 247 253 256 289
303 287 279 292 300 310 334 356 354 320 297 324 344 354 64 5 18 33 346 319 304 354 332 318 292 264 250 245 250 222 168 167 154 275 286 251 270 349 34 91 44 11 51 52
315 314 277 281 286 287 292 307 13 322 304 321 323 353 1 11 338 235 215 66 57 341 323 292 305 289 182 249 236 202 195 180 205 252 259 293 306 357 45 39 59 29 65 71
288 282 280 271 271 267 292 226 267 298 294 135 347 347 26 37 349 2 57 48 357 325 260 286 288 291 349 350 299 324 172 164 172 224 274 278 122 348 343 28 142 18 12 354
277 271 273 276 250 258 264 236 272 278 284 287 10 345 330 349 36 340 327 7 346 353 278 283 263 265 39 296 251 219 154 184 211 220 234 280 360 44 325 227 203 307 298 5
263 257 262 247 247 238 247 198 257 232 281 284 295 358 336 330 193 224 0 335 22 320 269 276 341 290 20 303 279 321 192 183 212 197 212 222 1 34 28 309 269 299 329 7
259 249 248 242 241 237 244 217 258 270 263 258 289 276 279 251 260 248 211 158 196 322 300 32 310 336 278 306 287 221 264 199 251 196 288 217 297 296 350 8 8 358 0 0
288 243 234 238 213 225 229 212 291 310 315 318 304 255 232 194 211 235 198 219 159 99 35 336 295 283 341 310 293 349 249 184 200 224 315 295 89 45 19 4 346 347 346 344
294 235 223 220 230 239 230 220 222 253 296 306 310 133 169 223 221 197 228 225 202 168 96 282 258 272 302 243 249 277 273 206 284 271 37 61 26 5 348 324 328 348 349 352
290 236 220 213 214 225 211 223 236 253 214 303 297 308 249 215 211 191 220 209 212 177 152 225 244 264 321 277 250 262 46 5 208 221 81 137 306 326 336 11 21 5 355 343
273 226 214 200 218 201 212 205 254 246 231 256 292 325 260 161 185 196 216 211 197 178 173 223 236 246 159 274 274 96 65 343 341 56 0 333 325 0 14 10 355 353 343 341
229 201 193 210 214 210 182 166 154 111 146 197 274 292 167 179 169 166 179 200 186 210 211 235 252 233 196 261 239 9 119 196 58 19 9 360 12 29 9 2 353 345 346 342
208 195 206 170 210 193 164 163 164 173 184 200 287 279 217 201 178 181 184 187 182 214 237 239 243 268 201 259 93 291 325 7 19 14 8 28 10 2 359 355 350 350 350 342
206 212 195 181 163 131 154 145 213 224 205 259 195 247 265 180 213 157 179 210 205 238 228 236 244 246 226 61 52 247 53 38 20 6 5 8 1 11 0 9 356 355 346 335
168 159 117 122 150 128 131 120 155 206 228 226 254 228 267 321 54 116 136 181 230 237 219 201 212 249 126 148 143 73 46 27 20 20 12 30 14 14 17 2 358 344 350 349
166 117 99 114 140 136 158 177 217 175 218 209 233 239 232 272 294 138 199 206 249 255 218 190 214 61 318 135 90 73 53 36 27 33 34 25 33 23 12 8 3 2 5 1
173 170 120 141 181 197 233 202 197 213 245 183 198 212 178 155 187 230 224 250 199 252 186 228 138 310 227 86 72 69 49 47 51 41 34 32 35 19 21 24 8 7 8 358
134 137 136 160 166 207 223 195 192 202 216 178 152 147 157 144 203 228 245 226 226 196 226 129 104 213 93 79 69 66 68 58 56 46 41 46 30 32 31 19 9 356 9 6
164 179 164 223 185 239 207 239 125 227 162 157 160 122 174 197 189 244 239 266 176 250 79 71 215 104 102 88 77 76 71 68 61 53 47 39 39 43 24 20 17 9 359 7
218 210 236 220 241 277 278 204 143 221 151 140 114 99 190 216 260 278 295 255 258 54 97 181 104 95 91 89 86 80 78 70 64 53 47 47 46 32 26 21 19 18 15 6
241 236 262 267 273 315 31 122 132 207 145 136 122 137 195 213 225 204 236 38 290 142 147 130 117 108 106 103 102 91 86 76 67 60 50 47 43 29 32 31 16 17 25 16
233 246 245 260 280 265 289 286 316 311 174 145 168 184 172 65 291 209 5 314 335 142 115 118 121 123 122 115 110 104 98 88 75 62 52 47 39 33 34 32 25 16 27 25